Wind_Speed
57 58 60 61 62 63 64 66 67 67 66 66 67 67 68 69 70 71 72 73 74 75 76 77 78 79 79 80 81 81 81 82 82 82 82 82 82 82
59 60 61 62 62 63 65 66 68 70 70 70 71 72 72 73 74 75 76 76 77 78 78 79 80 80 81 81 81 81 80 80 80 80 80 81 81 81
60 61 62 63 63 64 66 67 69 71 72 71 73 75 77 78 78 79 79 79 79 79 79 79 79 78 78 77 76 76 75 75 75 75 75 75 76 76
61 62 62 63 64 66 67 69 71 73 75 75 76 78 79 80 81 80 80 80 79 78 77 75 74 72 71 69 68 67 66 66 66 66 66 67 67 67
62 63 64 65 66 68 69 71 74 76 78 79 79 79 80 80 80 79 78 77 75 73 71 68 66 64 62 61 59 58 57 56 56 57 57 57 58 59
63 64 66 67 69 70 72 75 77 79 81 82 81 80 79 78 78 76 74 72 69 66 63 61 58 56 54 53 51 50 50 49 49 49 49 49 50 51
64 66 68 70 72 74 77 79 81 82 82 82 81 79 76 75 73 71 68 64 60 57 55 53 51 48 47 46 45 45 45 45 44 44 44 44 45 45
67 69 71 73 75 78 80 82 83 83 83 81 79 75 72 69 67 63 60 56 51 49 48 45 44 42 42 42 42 41 41 41 41 41 41 42 42 42
71 73 75 77 79 81 82 83 82 81 80 77 73 70 66 62 59 55 52 49 45 43 41 38 39 38 39 39 38 38 38 38 38 39 39 39 39 40
74 76 78 80 82 84 84 82 79 76 73 70 67 63 59 55 52 49 46 43 39 38 37 34 34 35 35 36 36 36 35 35 36 36 36 36 36 37
77 80 82 83 84 84 82 78 73 69 66 64 60 56 52 49 47 45 41 39 35 34 34 33 32 32 32 33 34 33 32 32 32 33 33 33 34 34
80 82 83 83 82 79 76 72 68 63 59 56 53 49 47 44 43 41 38 36 33 30 31 31 30 30 29 30 31 31 30 30 30 30 31 31 32 32
82 81 80 79 76 73 70 66 62 58 53 49 46 43 41 39 38 37 35 33 30 28 28 27 27 27 27 27 29 29 29 28 28 28 28 29 29 29
82 80 77 74 71 67 63 60 56 52 48 44 41 39 37 36 35 34 32 30 29 27 26 25 25 24 24 24 25 26 27 27 27 27 27 27 27 28
80 77 73 69 65 61 57 54 51 47 43 40 37 35 34 33 32 31 30 29 27 26 24 23 22 22 22 22 22 23 24 25 25 26 26 26 27 27
76 72 68 63 59 55 51 48 45 42 39 36 34 32 31 30 30 29 28 27 26 25 23 22 21 21 21 21 21 21 21 22 23 24 24 25 25 25
72 68 63 59 54 50 46 43 40 38 35 33 31 30 29 29 28 27 26 25 24 23 23 22 21 20 19 19 20 21 21 21 21 22 22 23 23 24
68 63 58 54 49 44 41 38 36 34 32 30 29 28 27 27 27 26 24 23 23 22 22 22 21 20 20 19 19 20 20 20 20 20 20 21 21 22
62 58 54 49 44 40 36 34 32 31 30 29 28 27 26 26 25 24 23 23 22 22 22 22 21 20 20 19 19 20 19 19 19 19 19 19 19 20
57 53 49 44 40 36 33 32 30 29 28 28 27 26 26 25 24 23 22 22 22 21 21 21 21 20 20 19 19 20 19 19 18 18 18 18 18 18
53 48 44 39 36 33 31 30 29 28 27 27 26 26 25 24 23 23 22 22 21 21 21 21 20 19 19 19 19 19 19 18 18 17 17 16 16 17
49 44 39 36 33 31 30 29 28 27 26 26 25 25 25 24 23 23 22 22 21 21 21 20 20 19 19 19 19 19 18 18 17 17 17 16 16 16
44 39 36 33 31 30 28 28 27 26 26 26 25 25 24 23 23 22 22 22 22 21 21 21 21 20 20 20 19 19 19 18 18 17 16 17 16 16
Wind_Direction
298 298 298 298 297 297 297 296 296 295 294 294 293 292 291 290 290 289 288 287 286 285 283 282 281 279 278 276 275 273 272 271 269 268 267 265 264 263
299 298 298 298 298 298 297 297 297 297 296 296 295 294 293 293 292 291 290 289 288 287 285 284 282 281 279 278 276 274 273 271 269 267 266 264 263 262
299 299 299 299 298 298 298 298 298 298 297 297 297 296 296 295 294 294 292 291 290 289 287 285 283 282 280 278 276 274 272 270 268 266 265 263 262 261
300 300 300 299 299 299 299 299 299 299 298 298 298 297 297 296 295 294 293 293 291 290 288 286 284 282 280 277 275 273 271 269 267 266 264 262 261 259
301 301 301 300 300 300 300 300 300 300 300 299 299 299 298 297 295 295 294 293 291 289 287 286 283 281 279 276 274 272 270 268 266 264 262 261 259 258
302 302 302 302 301 301 301 301 301 301 301 301 300 299 298 297 296 294 293 292 290 288 286 284 282 280 277 275 272 270 267 265 264 262 260 258 258 257
303 303 303 302 302 302 302 302 302 302 302 302 301 300 298 297 295 294 293 291 290 288 286 284 281 279 276 272 270 268 266 264 262 260 259 258 258 257
304 304 303 304 304 304 304 304 304 304 303 302 301 300 298 297 295 294 293 291 289 286 284 282 280 278 275 273 270 268 266 263 261 260 259 259 258 257
305 305 305 305 305 305 305 305 305 304 303 302 301 300 299 297 295 294 293 291 289 286 283 280 277 275 274 273 271 270 267 264 262 260 258 258 257 256
306 306 306 306 306 306 305 305 304 303 302 301 301 300 299 297 296 295 293 292 289 287 283 280 277 275 274 272 271 270 269 266 263 260 258 257 256 255
306 307 307 307 306 306 305 304 303 302 301 300 300 299 298 297 296 295 294 292 290 287 284 282 278 276 274 272 271 271 269 267 264 260 258 257 257 255
307 308 308 307 307 306 305 304 303 302 300 300 299 298 297 296 295 295 294 293 290 287 285 283 280 276 273 273 272 271 269 267 264 260 258 258 257 255
308 308 308 307 307 306 305 304 303 302 301 300 298 297 295 294 295 294 293 292 291 289 286 283 281 278 275 272 272 271 269 267 264 261 258 257 256 255
309 309 308 307 307 306 305 303 302 301 300 300 298 296 295 294 294 293 292 291 290 289 287 284 282 279 277 274 272 271 270 267 264 261 259 257 256 255
309 309 309 308 307 306 304 302 301 300 299 298 297 295 294 295 294 292 291 290 290 289 287 285 282 279 278 276 274 272 271 268 265 262 260 258 256 255
309 309 308 307 306 304 302 301 299 298 297 296 296 294 294 294 293 291 289 288 288 287 285 283 282 281 278 276 273 272 271 270 268 264 260 258 256 254
308 308 308 306 305 302 300 299 297 296 294 294 294 293 293 293 292 290 288 287 286 285 284 283 282 281 279 276 273 272 272 271 270 266 262 259 256 253
308 308 308 306 304 302 299 297 295 294 292 292 292 292 292 292 291 289 286 285 284 283 282 282 281 279 278 275 273 273 272 272 271 268 264 260 256 252
308 307 307 305 303 300 298 296 294 292 290 290 291 291 291 292 290 287 284 283 283 283 282 280 279 277 275 275 274 272 272 273 272 270 266 261 256 252
308 307 305 303 300 298 296 294 293 291 288 288 289 289 290 291 289 285 282 281 282 283 282 280 277 275 273 273 274 273 273 273 272 269 266 262 256 252
307 305 303 300 297 295 293 292 291 289 287 286 287 288 289 289 287 283 281 280 280 281 280 279 277 275 273 273 273 273 272 271 269 268 264 259 255 249
306 303 300 297 294 292 291 291 290 288 285 285 286 287 288 287 285 281 280 278 278 279 279 277 275 274 273 272 273 272 272 269 266 263 260 255 251 245
304 301 298 295 292 290 289 289 289 287 284 283 284 286 287 285 283 279 278 277 277 277 277 276 274 272 271 270 271 271 270 267 263 259 256 250 247 241
Height
5654 5648 5643 5637 5631 5625 5619 5613 5609 5606 5605 5600 5593 5587 5580 5575 5570 5565 5560 5556 5552 5548 5545 5542 5539 5537 5535 5534 5533 5533 5533 5534 5535 5536 5538 5540 5543 5546
5640 5634 5628 5622 5616 5610 5603 5597 5590 5585 5582 5579 5571 5565 5558 5553 5547 5541 5536 5531 5527 5522 5519 5515 5512 5509 5507 5506 5505 5505 5505 5506 5507 5509 5511 5513 5516 5519
5625 5619 5613 5607 5601 5594 5587 5581 5574 5566 5562 5559 5551 5543 5535 5528 5523 5516 5510 5505 5500 5495 5491 5487 5484 5482 5480 5478 5477 5477 5477 5478 5480 5482 5484 5487 5490 5494
5611 5604 5598 5591 5585 5578 5570 5563 5556 5548 5541 5537 5532 5523 5514 5505 5498 5492 5486 5480 5474 5469 5464 5460 5457 5455 5453 5452 5452 5452 5453 5454 5456 5458 5461 5464 5466 5469
5596 5589 5582 5575 5568 5560 5553 5545 5537 5529 5520 5513 5509 5500 5492 5482 5475 5468 5462 5456 5450 5445 5440 5437 5434 5432 5430 5430 5430 5431 5432 5433 5435 5437 5439 5442 5446 5449
5580 5572 5565 5558 5550 5542 5535 5526 5517 5508 5499 5491 5484 5477 5469 5459 5451 5445 5440 5434 5429 5423 5419 5416 5413 5412 5411 5411 5411 5412 5413 5415 5417 5419 5422 5425 5428 5431
5564 5556 5548 5540 5531 5523 5514 5505 5496 5487 5477 5468 5460 5453 5446 5436 5429 5422 5418 5414 5410 5404 5401 5398 5396 5395 5394 5394 5395 5396 5397 5399 5402 5404 5407 5410 5413 5416
5548 5539 5531 5521 5512 5503 5493 5483 5472 5462 5453 5444 5437 5430 5423 5415 5408 5402 5397 5394 5393 5389 5385 5384 5381 5380 5379 5380 5380 5382 5383 5385 5388 5390 5393 5396 5399 5401
5529 5521 5512 5502 5491 5482 5472 5462 5451 5439 5429 5421 5415 5408 5401 5395 5389 5385 5381 5378 5376 5373 5371 5371 5368 5368 5367 5367 5368 5369 5370 5372 5375 5377 5380 5383 5385 5388
5510 5501 5491 5482 5470 5459 5451 5442 5432 5421 5410 5401 5395 5389 5383 5377 5372 5369 5366 5364 5363 5360 5357 5358 5357 5356 5356 5356 5356 5357 5358 5360 5362 5365 5368 5370 5373 5376
5492 5481 5469 5459 5449 5436 5427 5419 5412 5403 5393 5385 5378 5372 5367 5363 5358 5355 5353 5351 5351 5349 5346 5346 5346 5346 5346 5345 5345 5346 5347 5349 5351 5354 5356 5359 5362 5365
5474 5462 5448 5436 5426 5414 5404 5397 5391 5384 5377 5371 5364 5359 5354 5350 5346 5343 5341 5339 5339 5338 5337 5335 5335 5335 5336 5336 5335 5336 5337 5339 5341 5343 5346 5349 5351 5354
5452 5441 5429 5416 5405 5395 5386 5378 5371 5365 5360 5356 5351 5347 5343 5339 5336 5333 5331 5329 5329 5328 5327 5326 5326 5325 5326 5327 5326 5326 5327 5329 5331 5334 5336 5339 5341 5344
5428 5419 5408 5397 5386 5377 5369 5361 5355 5350 5346 5342 5338 5335 5332 5329 5326 5324 5322 5320 5319 5319 5318 5317 5317 5317 5317 5318 5318 5318 5319 5320 5322 5324 5327 5329 5332 5335
5406 5397 5387 5377 5368 5361 5353 5347 5341 5337 5333 5330 5327 5324 5321 5319 5317 5315 5313 5312 5311 5310 5310 5309 5309 5309 5310 5310 5310 5311 5311 5312 5313 5315 5318 5320 5323 5325
5386 5378 5369 5360 5352 5345 5339 5333 5328 5324 5321 5319 5317 5314 5312 5310 5308 5306 5305 5304 5303 5302 5302 5302 5302 5302 5302 5303 5303 5303 5304 5305 5306 5307 5309 5312 5314 5317
5367 5360 5352 5344 5338 5331 5326 5321 5317 5313 5311 5309 5307 5305 5303 5301 5299 5298 5297 5297 5296 5295 5295 5295 5295 5295 5296 5296 5297 5297 5297 5298 5299 5300 5302 5304 5306 5308
5348 5341 5334 5328 5322 5317 5313 5309 5306 5303 5301 5299 5298 5296 5295 5293 5291 5290 5289 5289 5289 5288 5288 5288 5288 5289 5289 5290 5290 5290 5291 5291 5292 5293 5294 5296 5298 5301
5331 5324 5318 5313 5308 5304 5301 5298 5296 5293 5291 5290 5289 5288 5286 5285 5283 5282 5282 5281 5281 5281 5281 5281 5281 5282 5283 5283 5283 5284 5284 5285 5285 5287 5288 5289 5291 5294
5315 5309 5304 5299 5295 5292 5290 5288 5286 5284 5282 5281 5280 5279 5278 5277 5276 5275 5274 5274 5274 5274 5274 5274 5274 5275 5276 5277 5277 5277 5278 5279 5279 5280 5282 5283 5285 5288
5301 5295 5291 5287 5284 5281 5280 5278 5276 5275 5273 5272 5271 5271 5270 5269 5268 5267 5267 5267 5267 5267 5267 5267 5267 5269 5269 5270 5271 5271 5272 5273 5274 5275 5276 5278 5280 5282
5287 5282 5278 5275 5273 5271 5270 5268 5267 5266 5264 5264 5263 5262 5261 5261 5260 5260 5260 5260 5260 5260 5260 5260 5261 5262 5263 5264 5264 5265 5266 5267 5268 5269 5271 5273 5275 5277
5273 5270 5267 5265 5263 5261 5260 5259 5258 5257 5256 5255 5254 5254 5253 5253 5252 5252 5252 5252 5252 5253 5253 5253 5254 5255 5256 5257 5258 5259 5259 5261 5262 5264 5266 5268 5270 5273